Content
SEND FEEDBACK

Daily
Averages
Monthly
Summary
United States of America

BAYOU LA BATRE, ALABAMA


Home > North America > United States > Alabama
Elevation: 0 feet     Latitude: 30 23N     Longitude: 088 14W

WEATHER
 
SELECT A DAY
Number of Records: 198,999;   Date Range: 8/14/97 - 10/24/14
 
SHARE

PRINT THIS DATA

[ ← Previous Day ]
WEATHER ALMANAC - AUGUST 8, 2014
[ Next Day → ]
[ °C ]   °F
Weather ElementAverageHighLow
Temperature82.2 °F91 °F (11:53 am)75 °F (1:53 am)
Dewpoint75 °F78.1 °F (2:01 pm)73 °F (12:53 am)
Humidity80 %97 % (12:53 am)55 % (1:53 pm)
Barometer29.99 in30.04 in (1:36 am)29.95 in (3:01 am)
Wind Speed4 mph10.4 mph (12:53 pm)
Wind Gust19.6 mph (3:53 pm)
Weather ElementAverage
Visibility8.2 mi
Wind DirectionESE (123.6 °)

Weather ElementTotal
Precipitation---
Cooling Degree Days18 (Base 65)
Growing Degree Days33 (Base 50)
Averaged from 25 records on August 8, 2014
WEATHER CONDITIONS BREAKOUT
WIND DIRECTION BREAKOUT
WEATHER BY HOUR - AUGUST 8, 2014
[ °C ]   °F
Local TimeTemperatureDewpointHumidityBarometerVisibilityWind DirectionWind SpeedGust SpeedPrecipitationEventsConditions
12:53 AM75.9 °F75.0 °F97 %29.96 in6.0 miCalmClear
1:53 AM75.0 °F73.9 °F96 %29.96 in4.0 miCalmClear
2:53 AM75.0 °F73.9 °F96 %29.96 in4.0 miCalmClear
3:01 AM75.0 °F73.9 °F96 %29.95 in2.0 miCalmClear
3:11 AM75.0 °F73.9 °F96 %29.95 in4.0 miCalmPartly Cloudy
3:53 AM75.0 °F73.9 °F96 %29.96 in6.0 miCalmClear
4:53 AM75.0 °F73.9 °F96 %29.98 in5.0 miCalmClear
5:53 AM75.0 °F73.9 °F96 %30.00 in9.0 miCalmPartly Cloudy
6:53 AM75.9 °F75.0 °F97 %30.02 in6.0 miCalmClear
7:53 AM81.0 °F78.1 °F91 %30.03 in10.0 miNW (310°)4.6 mphClear
8:53 AM84.0 °F75.9 °F76 %30.04 in10.0 miWNW (290°)6.9 mphClear
9:53 AM87.1 °F75.9 °F69 %30.04 in10.0 miWest (270°)5.8 mphClear
10:53 AM89.1 °F75.9 °F65 %30.04 in10.0 miVariable4.6 mphPartly Cloudy
11:53 AM88.0 °F75.0 °F65 %30.03 in10.0 miVariable4.6 mphMostly Cloudy
12:53 PM90.0 °F73.9 °F59 %30.01 in10.0 miSSW (200°)10.4 mphPartly Cloudy
1:53 PM91.0 °F73.0 °F55 %30.00 in10.0 miSSW (200°)10.4 mphClear
2:53 PM90.0 °F73.9 °F59 %29.98 in10.0 miSSW (200°)9.2 mphClear
3:53 PM89.1 °F75.0 °F63 %29.96 in10.0 miSW (220°)9.2 mph19.6 mphClear
4:53 PM88.0 °F75.9 °F67 %29.96 in10.0 miSW (220°)6.9 mphClear
5:53 PM87.1 °F75.0 °F67 %29.96 in10.0 miSSW (200°)8.1 mphClear
6:53 PM84.9 °F75.9 °F74 %29.95 in10.0 miSSW (200°)4.6 mphClear
7:53 PM82.9 °F75.9 °F79 %29.95 in10.0 miSSW (200°)4.6 mphClear
8:53 PM82.0 °F75.9 °F82 %29.97 in10.0 miSouth (190°)3.5 mphClear
9:53 PM82.0 °F75.9 °F82 %29.99 in10.0 miSSW (200°)3.5 mphClear
10:53 PM82.0 °F75.9 °F82 %30.01 in10.0 miSouth (190°)3.5 mphClear
Hourly data recorded from KPQL, located miles away from Bayou La Batre, Alabama







STORIES FROM OUR PARTNERS